Datum;Richtung;Anzahl Messungen;Anzahl Fahrzeuge;Durchschnittsgeschwindigkeit;Hoechstgeschwindigkeit
26/10/2022 04:30;1;1;1;28.00;28.00
26/10/2022 05:00;1;2;2;31.00;32.00
26/10/2022 07:00;1;5;5;22.20;31.00
26/10/2022 07:30;1;4;4;23.75;33.00
26/10/2022 08:00;1;3;3;19.00;20.00
26/10/2022 08:30;1;5;5;18.40;20.00
26/10/2022 09:00;1;4;4;19.75;24.00
26/10/2022 09:30;1;8;8;22.88;30.00
26/10/2022 10:00;1;6;6;22.83;26.00
26/10/2022 10:30;1;3;3;24.67;27.00
26/10/2022 11:00;1;8;8;22.38;25.00
26/10/2022 11:30;1;8;8;20.50;27.00
26/10/2022 12:00;1;12;12;25.92;35.00
26/10/2022 12:30;1;9;9;22.67;30.00
26/10/2022 13:00;1;2;2;28.50;35.00
26/10/2022 13:30;1;4;4;21.75;26.00
26/10/2022 14:00;1;8;8;24.62;32.00
26/10/2022 14:30;1;8;8;25.00;29.00
26/10/2022 15:00;1;6;6;24.83;29.00
26/10/2022 15:30;1;13;13;22.85;30.00
26/10/2022 16:00;1;20;20;22.20;28.00
26/10/2022 16:30;1;13;13;23.08;29.00
26/10/2022 17:00;1;9;9;24.00;31.00
26/10/2022 17:30;1;13;13;24.31;34.00
26/10/2022 18:00;1;13;13;22.69;35.00
26/10/2022 18:30;1;14;14;22.50;29.00
26/10/2022 19:00;1;10;10;22.80;25.00
26/10/2022 19:30;1;7;7;21.14;25.00
26/10/2022 20:00;1;3;3;25.00;29.00
26/10/2022 20:30;1;3;3;21.00;24.00
26/10/2022 21:00;1;6;6;21.00;25.00
26/10/2022 21:30;1;3;3;23.33;26.00
26/10/2022 22:00;1;4;4;27.00;32.00
26/10/2022 22:30;1;3;3;22.33;31.00
26/10/2022 23:00;1;1;1;21.00;21.00
26/10/2022 23:30;1;3;3;26.67;33.00
27/10/2022 00:00;1;1;1;30.00;30.00
27/10/2022 05:00;1;2;2;23.00;27.00
27/10/2022 06:30;1;1;1;23.00;23.00
27/10/2022 07:00;1;1;1;24.00;24.00
27/10/2022 07:30;1;2;2;28.50;33.00
27/10/2022 08:00;1;3;3;23.00;26.00
27/10/2022 08:30;1;8;8;21.38;25.00
27/10/2022 09:00;1;4;4;25.50;28.00
27/10/2022 09:30;1;5;5;21.20;29.00
27/10/2022 10:00;1;6;6;29.33;44.00
27/10/2022 10:30;1;11;11;25.00;39.00
27/10/2022 11:00;1;6;6;21.83;28.00
27/10/2022 11:30;1;7;7;26.14;46.00
27/10/2022 12:00;1;6;6;21.17;28.00
27/10/2022 12:30;1;5;5;23.20;26.00
27/10/2022 13:00;1;6;6;25.00;34.00
27/10/2022 13:30;1;8;8;24.50;29.00
27/10/2022 14:00;1;6;6;22.17;27.00
27/10/2022 14:30;1;11;11;23.36;32.00
27/10/2022 15:00;1;5;5;24.40;30.00
27/10/2022 15:30;1;8;8;23.00;27.00
27/10/2022 16:00;1;12;12;23.75;30.00
27/10/2022 16:30;1;13;13;24.31;32.00
27/10/2022 17:00;1;16;16;24.75;40.00
27/10/2022 17:30;1;16;16;24.94;39.00
27/10/2022 18:00;1;11;11;22.27;29.00
27/10/2022 18:30;1;9;9;22.67;28.00
27/10/2022 19:00;1;9;9;21.89;27.00
27/10/2022 19:30;1;11;11;25.09;42.00
27/10/2022 20:00;1;2;2;23.50;26.00
27/10/2022 20:30;1;5;5;22.60;24.00
27/10/2022 21:00;1;3;3;32.33;42.00
27/10/2022 21:30;1;3;3;22.00;24.00
27/10/2022 22:00;1;2;2;20.00;24.00
27/10/2022 22:30;1;1;1;19.00;19.00
27/10/2022 23:00;1;1;1;29.00;29.00
27/10/2022 23:30;1;2;2;22.00;23.00
28/10/2022 00:30;1;1;1;23.00;23.00
28/10/2022 04:00;1;1;1;28.00;28.00
28/10/2022 05:00;1;1;1;37.00;37.00
28/10/2022 06:30;1;1;1;24.00;24.00
28/10/2022 07:00;1;2;2;21.50;24.00
28/10/2022 07:30;1;2;2;26.00;27.00
28/10/2022 08:00;1;4;4;23.25;29.00
28/10/2022 08:30;1;4;4;24.00;40.00
28/10/2022 09:00;1;4;4;26.50;33.00
28/10/2022 09:30;1;6;6;24.00;29.00
28/10/2022 10:00;1;6;6;24.17;28.00
28/10/2022 10:30;1;12;12;22.75;37.00
28/10/2022 11:00;1;6;6;25.83;32.00
28/10/2022 11:30;1;8;8;27.00;35.00
28/10/2022 12:00;1;9;9;23.11;27.00
28/10/2022 12:30;1;9;9;23.89;36.00
28/10/2022 13:00;1;18;18;22.67;32.00
28/10/2022 13:30;1;9;9;25.44;32.00
28/10/2022 14:00;1;9;9;21.89;28.00
28/10/2022 14:30;1;5;5;24.60;30.00
28/10/2022 15:00;1;8;8;21.88;31.00
28/10/2022 15:30;1;11;11;21.91;26.00
28/10/2022 16:00;1;5;5;29.80;37.00
28/10/2022 16:30;1;19;19;23.63;36.00
28/10/2022 17:00;1;16;16;23.25;37.00
28/10/2022 17:30;1;11;11;22.73;28.00
28/10/2022 18:00;1;15;15;23.60;31.00
28/10/2022 18:30;1;10;10;22.40;29.00
28/10/2022 19:00;1;9;9;24.11;26.00
28/10/2022 19:30;1;9;9;24.67;32.00
28/10/2022 20:00;1;10;10;24.10;29.00
28/10/2022 20:30;1;3;3;22.67;25.00
28/10/2022 21:00;1;4;4;22.25;23.00
28/10/2022 21:30;1;6;6;23.00;28.00
28/10/2022 22:00;1;3;3;31.00;43.00
28/10/2022 22:30;1;3;3;21.00;24.00
29/10/2022 00:00;1;1;1;25.00;25.00
29/10/2022 00:30;1;1;1;27.00;27.00
29/10/2022 01:00;1;2;2;25.00;27.00
29/10/2022 02:00;1;2;2;24.00;27.00
29/10/2022 07:00;1;3;3;27.33;37.00
29/10/2022 07:30;1;4;4;23.00;27.00
29/10/2022 08:30;1;4;4;25.25;30.00
29/10/2022 09:00;1;7;7;23.29;32.00
29/10/2022 09:30;1;5;5;23.00;27.00
29/10/2022 10:00;1;8;8;25.38;33.00
29/10/2022 10:30;1;9;9;27.89;39.00
29/10/2022 11:00;1;14;14;25.36;31.00
29/10/2022 11:30;1;9;9;24.89;31.00
29/10/2022 12:00;1;12;12;23.92;36.00
29/10/2022 12:30;1;9;9;21.33;28.00
29/10/2022 13:00;1;8;8;26.62;43.00
29/10/2022 13:30;1;9;9;22.67;33.00
29/10/2022 14:00;1;12;12;21.00;28.00
29/10/2022 14:30;1;15;15;23.67;29.00
29/10/2022 15:00;1;13;13;23.38;33.00
29/10/2022 15:30;1;19;19;22.95;28.00
29/10/2022 16:00;1;9;9;23.89;28.00
29/10/2022 16:30;1;11;11;22.82;30.00
29/10/2022 17:00;1;14;14;21.57;28.00
29/10/2022 17:30;1;11;11;22.55;32.00
29/10/2022 18:00;1;8;8;23.62;29.00
29/10/2022 18:30;1;12;12;20.33;27.00
29/10/2022 19:00;1;13;13;22.62;32.00
29/10/2022 19:30;1;8;8;24.00;34.00
29/10/2022 20:00;1;5;5;27.20;43.00
29/10/2022 20:30;1;1;1;24.00;24.00
29/10/2022 21:00;1;3;3;20.00;22.00
29/10/2022 21:30;1;2;2;18.00;20.00
29/10/2022 22:30;1;2;2;26.50;31.00
29/10/2022 23:00;1;1;1;24.00;24.00
29/10/2022 23:30;1;2;2;19.00;22.00
30/10/2022 00:00;1;1;1;28.00;28.00
30/10/2022 01:00;1;1;1;35.00;35.00
30/10/2022 01:30;1;1;1;29.00;29.00
30/10/2022 02:30;1;1;1;27.00;27.00
30/10/2022 02:00;1;1;1;24.00;24.00
30/10/2022 06:00;1;1;1;24.00;24.00
30/10/2022 07:30;1;3;3;26.67;29.00
30/10/2022 08:30;1;4;4;26.25;36.00
30/10/2022 09:00;1;5;5;24.00;29.00
30/10/2022 09:30;1;6;6;24.00;32.00
30/10/2022 10:00;1;1;1;19.00;19.00
30/10/2022 10:30;1;2;2;24.00;24.00
30/10/2022 11:00;1;1;1;25.00;25.00
30/10/2022 11:30;1;9;9;24.33;32.00
30/10/2022 12:00;1;9;9;26.11;40.00
30/10/2022 12:30;1;6;6;21.50;26.00
30/10/2022 13:00;1;5;5;21.60;29.00
30/10/2022 13:30;1;7;7;28.29;50.00
30/10/2022 14:00;1;6;6;24.33;32.00
30/10/2022 14:30;1;5;5;23.40;28.00
30/10/2022 15:00;1;6;6;26.83;39.00
30/10/2022 15:30;1;7;7;23.00;27.00
30/10/2022 16:00;1;13;13;23.00;28.00
30/10/2022 16:30;1;8;8;24.62;31.00
30/10/2022 17:00;1;12;12;22.17;29.00
30/10/2022 17:30;1;11;11;23.55;29.00
30/10/2022 18:00;1;6;6;24.67;35.00
30/10/2022 18:30;1;5;5;19.80;24.00
30/10/2022 19:00;1;5;5;22.80;32.00
30/10/2022 19:30;1;4;4;27.75;30.00
30/10/2022 20:00;1;3;3;22.67;27.00
30/10/2022 21:00;1;1;1;37.00;37.00
30/10/2022 21:30;1;2;2;23.50;26.00
30/10/2022 22:00;1;1;1;22.00;22.00
31/10/2022 00:00;1;1;1;25.00;25.00
31/10/2022 00:30;1;1;1;29.00;29.00
31/10/2022 02:30;1;1;1;25.00;25.00
31/10/2022 07:00;1;1;1;23.00;23.00
31/10/2022 07:30;1;2;2;23.50;25.00
31/10/2022 08:00;1;1;1;25.00;25.00
31/10/2022 08:30;1;3;3;23.33;31.00
31/10/2022 09:00;1;7;7;20.43;28.00
31/10/2022 09:30;1;2;2;20.00;23.00
31/10/2022 10:00;1;4;4;25.50;32.00
31/10/2022 10:30;1;9;9;24.78;33.00
31/10/2022 11:00;1;5;5;25.40;31.00
31/10/2022 11:30;1;5;5;22.60;29.00
31/10/2022 12:00;1;13;13;25.00;31.00
31/10/2022 12:30;1;11;11;22.64;28.00
31/10/2022 13:00;1;5;5;25.20;28.00
31/10/2022 13:30;1;5;5;23.20;28.00
31/10/2022 14:00;1;7;7;24.86;29.00
31/10/2022 14:30;1;10;10;28.40;38.00
31/10/2022 15:00;1;11;11;22.73;28.00
31/10/2022 15:30;1;9;9;23.67;27.00
31/10/2022 16:00;1;12;12;24.67;30.00
31/10/2022 16:30;1;7;7;25.86;37.00
31/10/2022 17:00;1;9;9;23.67;31.00
31/10/2022 17:30;1;9;9;23.22;31.00
31/10/2022 18:00;1;8;8;21.88;26.00
31/10/2022 18:30;1;8;8;21.00;29.00
31/10/2022 19:00;1;7;7;20.29;25.00
31/10/2022 19:30;1;5;5;20.80;25.00
31/10/2022 20:00;1;6;6;23.17;27.00
31/10/2022 20:30;1;4;4;20.50;26.00
31/10/2022 21:00;1;1;1;25.00;25.00
31/10/2022 21:30;1;3;3;21.00;28.00
31/10/2022 22:00;1;3;3;26.67;31.00
31/10/2022 22:30;1;3;3;24.33;26.00
31/10/2022 23:00;1;4;4;24.75;30.00
31/10/2022 23:30;1;1;1;23.00;23.00
01/11/2022 00:00;1;2;2;23.00;27.00
01/11/2022 00:30;1;1;1;19.00;19.00
01/11/2022 01:30;1;1;1;27.00;27.00
01/11/2022 03:00;1;2;2;25.00;25.00
01/11/2022 04:00;1;2;2;21.50;23.00
01/11/2022 06:30;1;1;1;19.00;19.00
01/11/2022 08:30;1;1;1;20.00;20.00
01/11/2022 09:00;1;3;3;22.00;26.00
01/11/2022 09:30;1;2;2;18.00;20.00
01/11/2022 10:00;1;2;2;23.00;27.00
01/11/2022 10:30;1;5;5;28.40;35.00
01/11/2022 11:00;1;1;1;21.00;21.00
01/11/2022 11:30;1;8;8;24.62;35.00
01/11/2022 12:00;1;4;4;22.75;26.00
01/11/2022 12:30;1;7;7;23.86;25.00
01/11/2022 13:00;1;6;6;24.67;35.00
01/11/2022 13:30;1;5;5;26.40;30.00
01/11/2022 14:00;1;6;6;25.33;29.00
01/11/2022 14:30;1;9;9;26.00;34.00
01/11/2022 15:00;1;6;6;20.83;24.00
01/11/2022 15:30;1;8;8;23.88;32.00
01/11/2022 16:00;1;5;5;20.80;30.00
01/11/2022 16:30;1;5;5;19.80;24.00
01/11/2022 17:00;1;7;7;22.86;27.00
01/11/2022 17:30;1;8;8;21.38;26.00
01/11/2022 18:00;1;4;4;27.75;41.00
01/11/2022 18:30;1;10;10;24.30;34.00
01/11/2022 19:00;1;12;12;21.25;28.00
01/11/2022 19:30;1;4;4;19.75;22.00
01/11/2022 20:00;1;1;1;27.00;27.00
01/11/2022 20:30;1;4;4;19.00;20.00
01/11/2022 21:00;1;6;6;25.83;50.00
01/11/2022 21:30;1;2;2;22.00;23.00
01/11/2022 22:00;1;3;3;23.00;32.00
01/11/2022 22:30;1;2;2;23.50;25.00
01/11/2022 23:00;1;3;3;26.00;28.00
02/11/2022 00:00;1;1;1;24.00;24.00
02/11/2022 01:30;1;1;1;28.00;28.00
02/11/2022 05:30;1;1;1;24.00;24.00
02/11/2022 06:30;1;1;1;27.00;27.00
02/11/2022 07:00;1;1;1;28.00;28.00
02/11/2022 07:30;1;2;2;24.50;25.00
02/11/2022 08:00;1;1;1;16.00;16.00
02/11/2022 08:30;1;3;3;19.33;24.00
02/11/2022 09:00;1;3;3;21.67;26.00
02/11/2022 09:30;1;4;4;21.25;23.00
02/11/2022 10:00;1;5;5;24.60;33.00
02/11/2022 10:30;1;7;7;26.71;30.00
02/11/2022 11:00;1;7;7;22.71;29.00
02/11/2022 11:30;1;4;4;21.50;25.00
02/11/2022 12:00;1;12;12;22.58;27.00
02/11/2022 12:30;1;9;9;22.56;28.00
02/11/2022 13:00;1;7;7;23.29;31.00
02/11/2022 13:30;1;6;6;25.67;29.00
02/11/2022 14:00;1;8;8;26.12;30.00
02/11/2022 14:30;1;11;11;24.36;35.00
02/11/2022 15:00;1;8;8;23.50;35.00
02/11/2022 15:30;1;7;7;21.14;25.00
02/11/2022 16:00;1;6;6;24.33;30.00
02/11/2022 16:30;1;7;7;20.71;27.00
02/11/2022 17:00;1;15;15;23.27;32.00
02/11/2022 17:30;1;14;14;21.71;28.00
02/11/2022 18:00;1;9;9;23.22;33.00
02/11/2022 18:30;1;18;18;23.39;36.00
02/11/2022 19:00;1;10;10;20.80;26.00
02/11/2022 19:30;1;6;6;23.67;32.00
02/11/2022 20:00;1;8;8;27.00;35.00
02/11/2022 20:30;1;6;6;26.17;31.00
02/11/2022 21:00;1;3;3;27.33;35.00
02/11/2022 21:30;1;7;7;24.57;30.00
02/11/2022 22:00;1;3;3;24.33;27.00
02/11/2022 22:30;1;3;3;22.33;28.00
02/11/2022 23:00;1;3;3;29.33;31.00
02/11/2022 23:30;1;2;2;23.50;29.00
03/11/2022 01:30;1;2;2;27.00;28.00
03/11/2022 06:30;1;2;2;35.00;36.00
03/11/2022 07:00;1;1;1;19.00;19.00
03/11/2022 07:30;1;1;1;21.00;21.00
03/11/2022 08:00;1;7;7;22.00;25.00
03/11/2022 08:30;1;4;4;22.00;25.00
03/11/2022 09:00;1;6;6;23.50;25.00
03/11/2022 09:30;1;12;12;20.83;33.00
03/11/2022 10:00;1;7;7;21.14;24.00
03/11/2022 10:30;1;2;2;21.00;26.00
03/11/2022 11:00;1;10;10;21.30;26.00
03/11/2022 11:30;1;8;8;23.12;30.00
03/11/2022 12:00;1;2;2;26.50;27.00
03/11/2022 12:30;1;3;3;25.00;36.00
03/11/2022 13:00;1;4;4;26.75;36.00
03/11/2022 13:30;1;7;7;23.43;28.00
03/11/2022 14:00;1;4;4;25.00;31.00
03/11/2022 14:30;1;8;8;22.12;27.00
03/11/2022 15:00;1;9;9;22.11;26.00
03/11/2022 15:30;1;11;11;22.82;30.00
03/11/2022 16:00;1;8;8;22.62;29.00
03/11/2022 16:30;1;17;17;24.53;30.00
03/11/2022 17:00;1;13;13;23.46;33.00
03/11/2022 17:30;1;12;12;23.50;30.00
03/11/2022 18:00;1;8;8;20.00;27.00
03/11/2022 18:30;1;14;14;23.43;29.00
03/11/2022 19:00;1;8;8;23.12;29.00
03/11/2022 19:30;1;5;5;20.40;22.00
03/11/2022 20:00;1;11;11;22.73;31.00
03/11/2022 20:30;1;8;8;23.12;30.00
03/11/2022 21:00;1;2;2;22.50;25.00
03/11/2022 21:30;1;1;1;26.00;26.00
03/11/2022 22:00;1;4;4;21.50;25.00
03/11/2022 22:30;1;2;2;27.50;34.00
03/11/2022 23:00;1;22;22;18.36;35.00
03/11/2022 23:30;1;8;8;18.25;22.00
04/11/2022 00:00;1;11;11;17.27;22.00
04/11/2022 03:00;1;1;1;23.00;23.00
04/11/2022 04:00;1;1;1;16.00;16.00
04/11/2022 06:30;1;1;1;21.00;21.00
04/11/2022 07:30;1;3;3;22.00;25.00
04/11/2022 08:00;1;3;3;19.33;21.00
04/11/2022 08:30;1;4;4;23.75;26.00
04/11/2022 09:00;1;6;6;22.00;32.00
04/11/2022 09:30;1;1;1;23.00;23.00
04/11/2022 10:00;1;5;5;25.60;31.00
04/11/2022 10:30;1;6;6;23.00;28.00
04/11/2022 11:00;1;5;5;23.80;29.00
04/11/2022 11:30;1;10;10;24.30;28.00
04/11/2022 12:00;1;5;5;22.00;28.00
04/11/2022 12:30;1;9;9;25.44;36.00
04/11/2022 13:00;1;11;11;23.27;31.00
04/11/2022 13:30;1;15;15;22.13;36.00
04/11/2022 14:00;1;11;11;21.64;27.00
04/11/2022 14:30;1;13;13;22.46;25.00
04/11/2022 15:00;1;11;11;20.91;25.00
04/11/2022 15:30;1;9;9;24.11;30.00
04/11/2022 16:00;1;11;11;23.09;28.00
04/11/2022 16:30;1;6;6;23.17;26.00
04/11/2022 17:00;1;10;10;23.90;32.00
04/11/2022 17:30;1;13;13;26.00;34.00
04/11/2022 18:00;1;8;8;22.38;24.00
04/11/2022 18:30;1;14;14;22.57;27.00
04/11/2022 19:00;1;8;8;23.75;28.00
04/11/2022 19:30;1;12;12;22.75;31.00
04/11/2022 20:00;1;5;5;25.40;30.00
04/11/2022 20:30;1;8;8;23.12;26.00
04/11/2022 21:00;1;8;8;24.38;40.00
04/11/2022 21:30;1;4;4;24.00;27.00
04/11/2022 22:00;1;3;3;25.33;26.00
04/11/2022 22:30;1;3;3;27.00;32.00
04/11/2022 23:00;1;2;2;24.50;28.00
04/11/2022 23:30;1;1;1;22.00;22.00
05/11/2022 00:00;1;1;1;25.00;25.00
05/11/2022 00:30;1;1;1;25.00;25.00
05/11/2022 01:00;1;1;1;20.00;20.00
05/11/2022 02:30;1;1;1;28.00;28.00
05/11/2022 03:30;1;1;1;28.00;28.00
05/11/2022 07:00;1;1;1;25.00;25.00
05/11/2022 08:00;1;3;3;20.33;27.00
05/11/2022 08:30;1;1;1;22.00;22.00
05/11/2022 09:00;1;2;2;21.50;23.00
05/11/2022 09:30;1;2;2;24.50;27.00
05/11/2022 10:00;1;6;6;21.17;27.00
05/11/2022 10:30;1;6;6;20.83;24.00
05/11/2022 11:00;1;9;9;23.89;33.00
05/11/2022 11:30;1;17;17;22.24;32.00
05/11/2022 12:00;1;12;12;24.17;32.00
05/11/2022 12:30;1;13;13;25.62;33.00
05/11/2022 13:00;1;12;12;20.83;26.00
05/11/2022 13:30;1;12;12;23.67;30.00
05/11/2022 14:00;1;7;7;23.57;30.00
05/11/2022 14:30;1;7;7;24.86;32.00
05/11/2022 15:00;1;13;13;23.77;43.00
05/11/2022 15:30;1;3;3;26.00;30.00
05/11/2022 16:00;1;4;4;24.25;32.00
05/11/2022 16:30;1;11;11;23.45;30.00
05/11/2022 17:00;1;10;10;24.00;34.00
05/11/2022 17:30;1;5;5;27.60;30.00
05/11/2022 18:00;1;18;18;24.06;29.00
05/11/2022 18:30;1;10;10;27.30;39.00
05/11/2022 19:00;1;15;15;22.00;25.00
05/11/2022 19:30;1;16;16;23.00;32.00
05/11/2022 20:00;1;7;7;22.86;30.00
05/11/2022 20:30;1;10;10;26.20;41.00
05/11/2022 21:00;1;11;11;22.55;35.00
05/11/2022 21:30;1;3;3;24.00;28.00
05/11/2022 22:00;1;1;1;21.00;21.00
05/11/2022 22:30;1;1;1;27.00;27.00
05/11/2022 23:00;1;4;4;23.00;27.00
05/11/2022 23:30;1;3;3;29.67;33.00
06/11/2022 00:00;1;3;3;30.33;34.00
06/11/2022 01:00;1;2;2;24.00;28.00
06/11/2022 01:30;1;4;4;26.25;35.00
06/11/2022 02:30;1;1;1;18.00;18.00
06/11/2022 03:30;1;2;2;21.00;21.00
06/11/2022 06:00;1;1;1;28.00;28.00
06/11/2022 07:00;1;1;1;19.00;19.00
06/11/2022 07:30;1;1;1;23.00;23.00
06/11/2022 09:00;1;1;1;23.00;23.00
06/11/2022 09:30;1;4;4;22.00;26.00
06/11/2022 10:30;1;5;5;23.40;28.00
06/11/2022 11:00;1;2;2;22.00;22.00
06/11/2022 11:30;1;3;3;19.00;21.00
06/11/2022 12:00;1;4;4;25.75;30.00
06/11/2022 12:30;1;3;3;21.67;25.00
06/11/2022 13:00;1;3;3;23.33;27.00
06/11/2022 13:30;1;8;8;26.25;36.00
06/11/2022 14:00;1;3;3;23.67;27.00
06/11/2022 14:30;1;7;7;25.00;29.00
06/11/2022 15:00;1;7;7;21.57;27.00
06/11/2022 15:30;1;16;16;23.94;30.00
06/11/2022 16:00;1;8;8;21.00;24.00
06/11/2022 16:30;1;11;11;21.64;28.00
06/11/2022 17:00;1;6;6;22.67;25.00
06/11/2022 17:30;1;9;9;23.56;27.00
06/11/2022 18:00;1;3;3;23.67;26.00
06/11/2022 18:30;1;8;8;22.12;26.00
06/11/2022 19:00;1;11;11;22.64;29.00
06/11/2022 19:30;1;6;6;25.83;34.00
06/11/2022 20:00;1;6;6;23.33;25.00
06/11/2022 20:30;1;4;4;24.75;28.00
06/11/2022 21:00;1;3;3;20.33;24.00
06/11/2022 21:30;1;5;5;24.20;26.00
06/11/2022 22:00;1;2;2;21.50;24.00
06/11/2022 22:30;1;3;3;22.00;28.00
06/11/2022 23:00;1;1;1;26.00;26.00
07/11/2022 00:00;1;2;2;22.50;24.00
07/11/2022 00:30;1;2;2;25.50;27.00
07/11/2022 01:00;1;1;1;16.00;16.00
07/11/2022 02:00;1;1;1;26.00;26.00
07/11/2022 03:30;1;1;1;21.00;21.00
07/11/2022 06:30;1;1;1;28.00;28.00
07/11/2022 07:30;1;2;2;23.00;25.00
07/11/2022 08:00;1;4;4;23.25;31.00
07/11/2022 08:30;1;5;5;26.40;35.00
07/11/2022 09:00;1;7;7;22.86;30.00
07/11/2022 09:30;1;5;5;29.60;49.00
07/11/2022 10:00;1;2;2;22.50;24.00
07/11/2022 10:30;1;3;3;25.00;37.00
07/11/2022 17:30;1;1;1;19.00;19.00
07/11/2022 20:00;1;4;4;24.75;29.00
07/11/2022 20:30;1;9;9;23.44;35.00
07/11/2022 21:00;1;4;4;23.75;29.00
07/11/2022 21:30;1;3;3;21.67;25.00
07/11/2022 22:00;1;6;6;22.83;25.00
07/11/2022 22:30;1;3;3;24.67;27.00
07/11/2022 23:00;1;4;4;24.25;34.00
07/11/2022 23:30;1;5;5;21.00;27.00
08/11/2022 01:00;1;1;1;24.00;24.00
08/11/2022 08:00;1;1;1;18.00;18.00
08/11/2022 12:00;1;3;3;18.00;20.00
08/11/2022 12:30;1;4;4;22.50;27.00
08/11/2022 13:30;1;2;2;20.50;21.00
08/11/2022 14:00;1;3;3;23.33;26.00
08/11/2022 14:30;1;7;7;18.57;24.00
08/11/2022 15:00;1;10;10;22.70;28.00
08/11/2022 15:30;1;4;4;25.00;27.00
08/11/2022 16:00;1;12;12;25.58;35.00
08/11/2022 16:30;1;6;6;22.50;27.00
08/11/2022 17:00;1;8;8;23.38;31.00
08/11/2022 17:30;1;10;10;22.90;29.00
08/11/2022 18:00;1;13;13;22.54;31.00
08/11/2022 18:30;1;14;14;21.57;26.00
08/11/2022 19:00;1;7;7;20.71;26.00
08/11/2022 19:30;1;9;9;25.33;35.00
08/11/2022 20:00;1;8;8;25.75;37.00
08/11/2022 20:30;1;9;9;25.22;36.00
08/11/2022 21:00;1;6;6;22.17;27.00
08/11/2022 21:30;1;3;3;25.67;28.00
08/11/2022 22:00;1;1;1;27.00;27.00
08/11/2022 22:30;1;8;8;25.00;33.00
08/11/2022 23:00;1;2;2;29.50;31.00
08/11/2022 23:30;1;2;2;25.00;26.00
09/11/2022 00:00;1;2;2;25.00;28.00
09/11/2022 01:30;1;1;1;28.00;28.00
09/11/2022 06:00;1;1;1;29.00;29.00
09/11/2022 07:00;1;1;1;24.00;24.00
09/11/2022 07:30;1;2;2;22.50;25.00
09/11/2022 08:00;1;2;2;26.00;29.00
09/11/2022 08:30;1;3;3;35.33;36.00
09/11/2022 09:00;1;1;1;17.00;17.00
09/11/2022 09:30;1;1;1;21.00;21.00
09/11/2022 10:00;1;5;5;23.00;31.00
09/11/2022 10:30;1;4;4;27.75;30.00
09/11/2022 11:00;1;4;4;23.50;25.00
09/11/2022 11:30;1;8;8;25.75;33.00
09/11/2022 12:00;1;8;8;25.12;31.00
09/11/2022 12:30;1;7;7;22.71;27.00
09/11/2022 13:00;1;11;11;24.45;35.00
09/11/2022 13:30;1;6;6;23.00;33.00
09/11/2022 14:00;1;8;8;22.12;28.00
09/11/2022 14:30;1;8;8;22.50;38.00
09/11/2022 15:00;1;9;9;23.44;39.00
09/11/2022 15:30;1;8;8;23.00;27.00
09/11/2022 16:00;1;10;10;24.20;29.00
09/11/2022 16:30;1;14;14;24.79;33.00
09/11/2022 17:00;1;9;9;22.78;27.00
09/11/2022 17:30;1;13;13;23.46;30.00
09/11/2022 18:00;1;15;15;21.67;28.00
09/11/2022 18:30;1;12;12;23.08;31.00
09/11/2022 19:00;1;9;9;24.11;33.00
09/11/2022 19:30;1;5;5;23.40;33.00
09/11/2022 20:00;1;8;8;23.75;28.00
09/11/2022 20:30;1;6;6;22.50;27.00
09/11/2022 21:00;1;8;8;23.50;31.00
09/11/2022 21:30;1;4;4;21.75;23.00
09/11/2022 22:00;1;7;7;23.86;32.00
09/11/2022 22:30;1;1;1;21.00;21.00
09/11/2022 23:00;1;3;3;22.33;25.00
09/11/2022 23:30;1;2;2;28.50;29.00
10/11/2022 00:00;1;1;1;22.00;22.00
10/11/2022 00:30;1;1;1;22.00;22.00
10/11/2022 06:00;1;1;1;28.00;28.00
10/11/2022 06:30;1;1;1;32.00;32.00
10/11/2022 07:30;1;3;3;24.00;29.00
10/11/2022 08:00;1;4;4;20.50;25.00
10/11/2022 08:30;1;4;4;24.00;28.00
10/11/2022 09:00;1;4;4;26.00;40.00
10/11/2022 09:30;1;3;3;20.00;22.00
10/11/2022 10:00;1;6;6;26.67;29.00
10/11/2022 10:30;1;4;4;20.25;22.00
10/11/2022 11:00;1;6;6;21.67;24.00
10/11/2022 11:30;1;12;12;24.58;33.00
10/11/2022 12:00;1;9;9;25.67;33.00
10/11/2022 12:30;1;6;6;21.83;29.00
10/11/2022 13:00;1;6;6;22.50;28.00
10/11/2022 13:30;1;8;8;23.88;30.00
10/11/2022 14:00;1;8;8;24.75;42.00
10/11/2022 14:30;1;11;11;22.27;28.00
10/11/2022 15:00;1;3;3;22.00;23.00
10/11/2022 15:30;1;9;9;23.33;28.00
10/11/2022 16:00;1;13;13;23.85;32.00
10/11/2022 16:30;1;4;4;23.00;28.00
10/11/2022 17:00;1;17;17;24.76;36.00
10/11/2022 17:30;1;9;9;23.33;33.00
10/11/2022 18:00;1;10;10;23.00;31.00
10/11/2022 18:30;1;16;16;22.56;32.00
10/11/2022 19:00;1;10;10;23.20;31.00
10/11/2022 19:30;1;8;8;23.50;45.00
10/11/2022 20:00;1;9;9;25.89;33.00
10/11/2022 20:30;1;6;6;23.33;35.00
10/11/2022 21:00;1;6;6;24.50;30.00
10/11/2022 21:30;1;8;8;23.75;31.00
10/11/2022 22:00;1;4;4;24.50;26.00
10/11/2022 22:30;1;2;2;23.00;25.00
10/11/2022 23:00;1;4;4;23.75;33.00
10/11/2022 23:30;1;4;4;24.50;26.00
11/11/2022 00:00;1;1;1;22.00;22.00
11/11/2022 01:30;1;2;2;36.50;40.00
11/11/2022 06:30;1;1;1;27.00;27.00
11/11/2022 07:30;1;1;1;28.00;28.00
11/11/2022 08:00;1;3;3;20.67;27.00
11/11/2022 08:30;1;4;4;27.50;31.00
11/11/2022 09:00;1;1;1;30.00;30.00
11/11/2022 09:30;1;3;3;25.00;28.00
11/11/2022 10:00;1;6;6;23.00;29.00
11/11/2022 10:30;1;4;4;22.25;27.00
11/11/2022 11:00;1;4;4;22.50;24.00
11/11/2022 11:30;1;11;11;24.18;35.00
11/11/2022 12:00;1;4;4;25.75;30.00
11/11/2022 12:30;1;4;4;23.75;30.00
11/11/2022 13:00;1;6;6;29.83;41.00
11/11/2022 13:30;1;10;10;25.10;41.00
11/11/2022 14:00;1;8;8;22.25;27.00
11/11/2022 14:30;1;7;7;21.57;27.00
11/11/2022 15:00;1;13;13;25.54;35.00
11/11/2022 15:30;1;5;5;21.40;30.00
11/11/2022 16:00;1;12;12;24.00;33.00
11/11/2022 16:30;1;11;11;23.91;31.00
11/11/2022 17:00;1;11;11;25.36;31.00
11/11/2022 17:30;1;9;9;24.22;35.00
11/11/2022 18:00;1;15;15;25.07;33.00
11/11/2022 18:30;1;20;20;24.10;33.00
11/11/2022 19:00;1;9;9;22.22;28.00
11/11/2022 19:30;1;15;15;22.33;31.00
11/11/2022 20:00;1;14;14;23.43;27.00
11/11/2022 20:30;1;4;4;22.50;27.00
11/11/2022 21:00;1;3;3;25.33;28.00
11/11/2022 21:30;1;2;2;25.50;26.00
11/11/2022 22:00;1;3;3;24.67;28.00
11/11/2022 22:30;1;5;5;22.40;26.00
11/11/2022 23:00;1;4;4;23.75;31.00
11/11/2022 23:30;1;3;3;25.00;27.00
12/11/2022 00:30;1;1;1;21.00;21.00
12/11/2022 01:00;1;4;4;25.50;28.00
12/11/2022 02:00;1;1;1;31.00;31.00
12/11/2022 02:30;1;1;1;16.00;16.00
12/11/2022 06:00;1;1;1;26.00;26.00
12/11/2022 08:00;1;1;1;23.00;23.00
12/11/2022 08:30;1;2;2;21.00;22.00
12/11/2022 09:00;1;1;1;29.00;29.00
12/11/2022 09:30;1;5;5;22.20;26.00
12/11/2022 10:00;1;6;6;20.50;26.00
12/11/2022 10:30;1;6;6;23.67;34.00
12/11/2022 11:00;1;7;7;24.14;32.00
12/11/2022 11:30;1;8;8;23.50;31.00
12/11/2022 12:00;1;15;15;21.73;28.00
12/11/2022 12:30;1;7;7;24.14;30.00
12/11/2022 13:00;1;5;5;24.80;29.00
12/11/2022 13:30;1;10;10;26.70;47.00
12/11/2022 14:00;1;9;9;22.78;26.00
12/11/2022 14:30;1;11;11;23.27;28.00
12/11/2022 15:00;1;12;12;23.67;30.00
12/11/2022 15:30;1;9;9;23.78;30.00
12/11/2022 16:00;1;13;13;22.15;26.00
12/11/2022 16:30;1;7;7;22.00;28.00
12/11/2022 17:00;1;14;14;24.43;32.00
12/11/2022 17:30;1;12;12;25.25;32.00
12/11/2022 18:00;1;9;9;25.00;39.00
12/11/2022 18:30;1;9;9;23.78;33.00
12/11/2022 19:00;1;6;6;21.33;27.00
12/11/2022 19:30;1;10;10;23.00;29.00
12/11/2022 20:00;1;10;10;27.40;37.00
12/11/2022 20:30;1;4;4;21.50;22.00
12/11/2022 21:00;1;2;2;23.00;24.00
12/11/2022 21:30;1;3;3;25.00;27.00
12/11/2022 22:00;1;3;3;19.33;21.00
12/11/2022 22:30;1;1;1;23.00;23.00
12/11/2022 23:00;1;4;4;27.00;33.00
12/11/2022 23:30;1;2;2;22.00;23.00
13/11/2022 00:00;1;1;1;29.00;29.00
13/11/2022 00:30;1;2;2;21.00;26.00
13/11/2022 02:30;1;1;1;29.00;29.00
13/11/2022 04:00;1;1;1;17.00;17.00
13/11/2022 05:30;1;1;1;29.00;29.00
13/11/2022 06:00;1;1;1;30.00;30.00
13/11/2022 06:30;1;2;2;25.00;30.00
13/11/2022 09:00;1;1;1;28.00;28.00
13/11/2022 09:30;1;2;2;23.00;25.00
13/11/2022 10:00;1;2;2;25.00;25.00
13/11/2022 10:30;1;5;5;25.80;34.00
13/11/2022 11:00;1;6;6;24.83;32.00
13/11/2022 11:30;1;3;3;19.33;21.00
13/11/2022 12:00;1;2;2;27.50;28.00
13/11/2022 12:30;1;7;7;21.00;26.00
13/11/2022 13:00;1;3;3;27.33;31.00
13/11/2022 13:30;1;6;6;22.00;25.00
13/11/2022 14:00;1;4;4;23.75;26.00
13/11/2022 14:30;1;6;6;22.83;27.00
13/11/2022 15:00;1;5;5;26.00;30.00
13/11/2022 15:30;1;11;11;22.18;29.00
13/11/2022 16:00;1;6;6;23.67;27.00
13/11/2022 16:30;1;7;7;21.29;26.00
13/11/2022 17:00;1;5;5;21.80;27.00
13/11/2022 17:30;1;7;7;24.43;29.00
13/11/2022 18:00;1;7;7;22.57;30.00
13/11/2022 18:30;1;6;6;19.33;24.00
13/11/2022 19:00;1;2;2;30.50;32.00
13/11/2022 19:30;1;8;8;27.62;39.00
13/11/2022 20:00;1;6;6;25.50;37.00
13/11/2022 20:30;1;11;11;25.18;37.00
13/11/2022 21:00;1;3;3;28.33;37.00
13/11/2022 21:30;1;2;2;19.00;21.00
13/11/2022 22:00;1;3;3;27.67;35.00
13/11/2022 22:30;1;3;3;28.00;37.00
13/11/2022 23:00;1;3;3;23.67;26.00
13/11/2022 23:30;1;4;4;24.25;26.00
14/11/2022 00:00;1;1;1;24.00;24.00
14/11/2022 02:30;1;1;1;24.00;24.00
14/11/2022 06:00;1;2;2;48.00;52.00
14/11/2022 07:30;1;1;1;26.00;26.00
14/11/2022 08:00;1;1;1;28.00;28.00
14/11/2022 08:30;1;3;3;25.33;33.00
14/11/2022 09:00;1;4;4;25.75;30.00